Durant, OK

3:20 PM CST on December 11, 2019 (GMT -0600)
Eaker

Weather History for KDUA - October, 2019

Change the Weather History Date:

Friday, October 18, 2019

  Actual Average (KMLC) Record (KMLC)
Temperature  
Mean Temperature 60 °F -  
Max Temperature 77 °F 73 °F 91 °F (2005)
Min Temperature 44 °F 49 °F 34 °F (1996)
Degree Days  
Heating Degree Days 4    
Growing Degree Days 10 (Base 50)    
Moisture  
Dew Point 45 °F    
Average Humidity 66    
Maximum Humidity 94    
Minimum Humidity 24    
Precipitation  
Precipitation 0.00 in - - ()
Sea Level Pressure  
Sea Level Pressure 29.87 in    
Wind  
Wind Speed 5 mph (SE)    
Max Wind Speed 15 mph    
Max Gust Speed 18 mph    
Visibility 9 miles    
Events      
Averages and records for this station are not official NWS values.
T = Trace of Precipitation, MM = Missing Value Source: NWS Daily Summary

Daily Weather History Graph

Daily Weather History Graph

Search for Another Location

Airport or City:

Astronomy

Oct. 18, 2019 Rise Set
Actual Time 7:32 AM CDT 6:48 PM CDT
Civil Twilight 7:07 AM CDT 7:13 PM CDT
Nautical Twilight 6:38 AM CDT 7:42 PM CDT
Astronomical Twilight 6:09 AM CDT 8:11 PM CDT
Moon 10:16 PM CDT (10/18) 11:56 AM CDT (10/18)
Length of Visible Light 12h 05m
Length of Day
11h 15m
Waning Gibbous, 78% of the Moon is Illuminated
Oct 18
Waning Gibbous
Oct 21
Last Quarter
Oct 27
New
Nov 4
First Quarter
Nov 12
Full

Hourly Weather History & Observations

Time (CDT) Temp. Windchill Dew Point Humidity Pressure Visibility Wind Dir Wind Speed Gust Speed Precip Events Conditions
12:17 AM 51.8 °F - 46.4 °F 82% 29.95 in 3.0 mi SSE 4.6 mph - N/A   Haze
12:37 AM 51.8 °F - 46.4 °F 82% 29.94 in 1.8 mi SSE 5.8 mph - N/A   Mist
12:57 AM 51.8 °F - 46.4 °F 82% 29.93 in 5.0 mi SSE 3.5 mph - N/A   Clear
1:37 AM 51.8 °F - 46.4 °F 82% 29.93 in 1.5 mi SSE 5.8 mph - N/A   Mist
1:57 AM 51.8 °F - 46.4 °F 82% 29.93 in 7.0 mi SSE 4.6 mph - N/A   Clear
2:16 AM 50.0 °F - 46.4 °F 87% 29.92 in 1.0 mi SSE 3.5 mph - N/A   Mist
2:37 AM 48.2 °F - 44.6 °F 87% 29.93 in 0.8 mi Calm Calm - N/A   Mist
2:57 AM 48.2 °F - 44.6 °F 87% 29.93 in 10.0 mi SSE 3.5 mph - N/A   Clear
3:17 AM 48.2 °F - 44.6 °F 87% 29.93 in 2.0 mi Calm Calm - N/A   Clear
3:56 AM 48.2 °F - 44.6 °F 87% 29.93 in 10.0 mi SSE 4.6 mph - N/A   Clear
4:57 AM 46.4 °F - 42.8 °F 87% 29.93 in 10.0 mi Calm Calm - N/A   Clear
5:16 AM 46.4 °F 45.2 °F 44.6 °F 93% 29.94 in 10.0 mi SE 3.5 mph - N/A   Clear
5:36 AM 46.4 °F - 44.6 °F 93% 29.94 in 10.0 mi Calm Calm - N/A   Clear
5:57 AM 46.4 °F - 42.8 °F 87% 29.94 in 10.0 mi Calm Calm - N/A   Clear
6:36 AM 44.6 °F - 42.8 °F 93% 29.95 in 10.0 mi Calm Calm - N/A   Clear
7:37 AM 44.6 °F 42.2 °F 42.8 °F 93% 29.93 in 7.0 mi ESE 4.6 mph - N/A   Clear
7:56 AM 46.4 °F - 44.6 °F 93% 29.94 in 10.0 mi Calm Calm - N/A   Clear
8:16 AM 48.2 °F - 46.4 °F 93% 29.94 in 10.0 mi ESE 3.5 mph - N/A   Clear
8:37 AM 50.0 °F - 48.2 °F 94% 29.95 in 7.0 mi SE 3.5 mph - N/A   Clear
8:56 AM 51.8 °F - 48.2 °F 88% 29.94 in 10.0 mi ESE 5.8 mph - N/A   Clear
9:17 AM 53.6 °F - 51.8 °F 94% 29.95 in 10.0 mi SE 6.9 mph - N/A   Clear
9:36 AM 55.4 °F - 53.6 °F 94% 29.95 in 10.0 mi SSE 5.8 mph - N/A   Clear
9:56 AM 57.2 °F - 53.6 °F 88% 29.95 in 10.0 mi SE 6.9 mph - N/A   Clear
10:16 AM 57.2 °F - 50.0 °F 77% 29.94 in 10.0 mi SE 5.8 mph - N/A   Clear
10:37 AM 60.8 °F - 50.0 °F 68% 29.94 in 10.0 mi SSE 10.4 mph - N/A   Clear
10:57 AM 62.6 °F - 48.2 °F 59% 29.93 in 10.0 mi SSE 9.2 mph - N/A   Clear
11:18 AM 64.4 °F - 48.2 °F 56% 29.92 in 10.0 mi SSE 10.4 mph - N/A   Clear
11:38 AM 64.4 °F - 48.2 °F 56% 29.92 in 10.0 mi SE 11.5 mph - N/A   Clear
11:58 AM 66.2 °F - 46.4 °F 49% 29.91 in 10.0 mi SSE 11.5 mph - N/A   Clear
12:16 PM 68.0 °F - 46.4 °F 46% 29.90 in 10.0 mi SE 9.2 mph - N/A   Clear
1:36 PM 73.4 °F - 41.0 °F 31% 29.84 in 10.0 mi SSE 12.7 mph 18.4 mph N/A   Clear
1:57 PM 73.4 °F - 39.2 °F 29% 29.82 in 10.0 mi South 15.0 mph 18.4 mph N/A   Clear
2:57 PM 75.2 °F - 39.2 °F 27% 29.80 in 10.0 mi SSE 15.0 mph - N/A   Clear
3:17 PM 75.2 °F - 37.4 °F 25% 29.79 in 7.0 mi South 11.5 mph 17.3 mph N/A   Clear
3:36 PM 77.0 °F - 37.4 °F 24% 29.78 in 10.0 mi SE 9.2 mph - N/A   Clear
3:57 PM 77.0 °F - 37.4 °F 24% 29.77 in 10.0 mi SE 11.5 mph 16.1 mph N/A   Clear
4:36 PM 77.0 °F - 37.4 °F 24% 29.77 in 10.0 mi SSE 11.5 mph - N/A   Clear
5:56 PM 75.2 °F - 39.2 °F 27% 29.76 in 10.0 mi SE 10.4 mph - N/A   Clear
6:36 PM 71.6 °F - 39.2 °F 31% 29.76 in 10.0 mi SE 6.9 mph - N/A   Clear
6:56 PM 69.8 °F - 41.0 °F 35% 29.75 in 10.0 mi SE 8.1 mph - N/A   Clear
7:17 PM 66.2 °F - 42.8 °F 43% 29.75 in 10.0 mi SE 10.4 mph - N/A   Clear
7:57 PM 64.4 °F - 44.6 °F 49% 29.75 in 10.0 mi SE 8.1 mph - N/A   Clear
8:36 PM 62.6 °F - 44.6 °F 52% 29.77 in 10.0 mi SE 5.8 mph - N/A   Clear
8:56 PM 62.6 °F - 44.6 °F 52% 29.77 in 10.0 mi SSE 5.8 mph - N/A   Clear
9:16 PM 60.8 °F - 44.6 °F 55% 29.77 in 10.0 mi SE 6.9 mph - N/A   Clear
10:16 PM 60.8 °F - 46.4 °F 59% 29.76 in 10.0 mi SSE 8.1 mph - N/A   Clear
10:38 PM 60.8 °F - 46.4 °F 59% 29.77 in 10.0 mi SSE 4.6 mph - N/A   Clear
10:56 PM 59.0 °F - 46.4 °F 63% 29.77 in 10.0 mi SSE 5.8 mph - N/A   Clear
11:16 PM 57.2 °F - 46.4 °F 67% 29.76 in 10.0 mi SE 5.8 mph - N/A   Scattered Clouds
11:36 PM 59.0 °F - 46.4 °F 63% 29.76 in 10.0 mi SE 5.8 mph - N/A   Scattered Clouds
11:56 PM 57.2 °F - 48.2 °F 72% 29.76 in 10.0 mi SE 4.6 mph - N/A   Clear